This is the latest recevied weather packets stored in our database for station/object KY4LEX. If no packets are shown the sender has not sent any weather packets the latest 10 day(s).
| Time | Temp. | Humidity | Pressure | Rain* | Wind** | Luminosity | Snow |
|---|---|---|---|---|---|---|---|
| 1777478345 | 17.22° C | 99% | 1014.7 hPa | 1.78 mm | - | 251 W/m² | - |
| 1777478041 | 17.22° C | 99% | 1015 hPa | 1.27 mm | - | 146 W/m² | - |
| 1777477736 | 16.67° C | 99% | 1014.8 hPa | 1.27 mm | - | 112 W/m² | - |
| 1777477433 | 16.67° C | 99% | 1014.8 hPa | 3.05 mm | - | 127 W/m² | - |
| 1777477130 | 16.67° C | 99% | 1014.9 hPa | 4.32 mm | - | 111 W/m² | - |
| 1777476827 | 16.67° C | 99% | 1014.8 hPa | 6.6 mm | - | 94 W/m² | - |
| 1777476524 | 16.67° C | 99% | 1014.9 hPa | 4.83 mm | - | 115 W/m² | - |
| 1777476220 | 16.67° C | 99% | 1015.1 hPa | 3.05 mm | - | 90 W/m² | - |
| 1777475916 | 16.67° C | 99% | 1015.3 hPa | 3.05 mm | - | 94 W/m² | - |
| 1777475612 | 16.67° C | 99% | 1014.9 hPa | 1.27 mm | - | 83 W/m² | - |
| 1777475309 | 16.67° C | 99% | 1014.9 hPa | 0 mm | - | 105 W/m² | - |
| 1777475004 | 16.67° C | 99% | 1015 hPa | 1.78 mm | - | 84 W/m² | - |
| 1777474701 | 16.67° C | 99% | 1015.1 hPa | 1.78 mm | - | 85 W/m² | - |
| 1777474397 | 16.67° C | 99% | 1015 hPa | 1.27 mm | - | 84 W/m² | - |
| 1777474094 | 16.67° C | 99% | 1015 hPa | 3.05 mm | - | 80 W/m² | - |
| 1777473792 | 16.67° C | 99% | 1015.3 hPa | 3.05 mm | - | 67 W/m² | - |
| 1777473488 | 16.11° C | 99% | 1015.1 hPa | 3.05 mm | - | 80 W/m² | - |
| 1777473183 | 16.11° C | 99% | 1015.1 hPa | 4.83 mm | - | 77 W/m² | - |
| 1777472881 | 16.11° C | 99% | 1015.2 hPa | 3.05 mm | - | 83 W/m² | - |
| 1777472577 | 16.67° C | 99% | 1015 hPa | 3.05 mm | - | 99 W/m² | - |
| 1777472274 | 16.67° C | 99% | 1015.2 hPa | 1.78 mm | - | 114 W/m² | - |
| 1777471970 | 16.67° C | 99% | 1015.1 hPa | 1.78 mm | - | 84 W/m² | - |
| 1777471667 | 16.11° C | 99% | 1015.2 hPa | 1.78 mm | - | 163 W/m² | - |
| 1777471363 | 16.11° C | 99% | 1015.4 hPa | 0 mm | - | 88 W/m² | - |
| 1777471060 | 16.11° C | 99% | 1015.6 hPa | 1.27 mm | - | 80 W/m² | - |
* Rain latest hour (hover to see other rain measurements)
** Current wind speed in m/s (hover to see current wind gust speed)